Volver al catálogo

DELTA 1 DEB

ActivoSSO
NORAD 37664·DEBRIS·🇺🇸 United States

Lanzado Mar 5, 1978 desde Vandenberg Space Force Base

Loading…

Próximos Pases (próximas 24 horas)

TLE

ObsoletoSource: Space-Track

Época: Aug 31, 2026, 08:59 UTC

1 37664U 78026KB  26243.37460973  .00000024  00000-0  51971-4 0  9998
2 37664  98.7615  74.2352 0076938  86.6299  32.7993 13.88845815341776

Sigue DELTA 1 DEB en tiempo real con AllMySat

Download on the App Store